Flag for Turkey Weather past 2 weeks in Samsun, Turkey

Now
73 °F

Broken clouds.


Feels Like: 77 °F
Forecast: 44 / 54 °F
Wind: 6 mph from West

Location: Samsun / Carsamba

Current Time: Mar 29, 2015 at 1:56:17 PM

Latest Report: Mar 29, 2015 at 12:50 PM


Visibility: N/A

Pressure: 29.77 "Hg

Humidity: 36%

Dew point: 45 °F

Location of SamsunLocation

Historic Weather in Samsun — Graph

°F

Samsun temperature yesterday

Maximum temperature yesterday: 75 °F (at 11:50 AM)
Minimum temperature yesterday: 52 °F (at 11:50 PM)
Average temperature yesterday: 67 °F

Past Weeks' High & Low Weather Summary

 TemperatureHumidityPressure
High79 °F (Mar 27, 2:50 PM)100% (Mar 18, 2:50 AM)30.36 "Hg (Mar 18, 2:50 AM)
Low30 °F (Mar 18, 2:50 AM)22% (Mar 27, 9:50 AM)29.59 "Hg (Mar 28, 1:50 PM)
Average48 °F76%30.10 "Hg
* Reported Mar 14 11:50 AM — Mar 29 12:50 PM, Samsun, Weather by CustomWeather, © 2015

Note: Actual official high and low records may vary slightly from our data, if they occured in-between our weather recording intervals... More about our weather records

Advertising

Samsun weather history for previous 24 hours

 ConditionsComfort  
Time TempWeatherWind HumidityBarometerVisibility
12:50 PM
Sun, Mar 29
73 °FBroken clouds.6 mph36%29.77 "HgN/A
11:50 AM73 °FBroken clouds.3 mph33%29.77 "HgN/A
10:50 AM70 °FBroken clouds.5 mph43%29.80 "HgN/A
9:50 AM70 °FPartly sunny.6 mph40%29.80 "HgN/A
8:50 AM66 °FPartly sunny.5 mph49%29.80 "HgN/A
7:50 AM64 °FPartly sunny.9 mph46%29.80 "HgN/A
6:50 AM59 °FPassing clouds.6 mph55%29.80 "HgN/A
5:50 AM52 °FPassing clouds.6 mph82%29.77 "HgN/A
4:50 AM55 °FPassing clouds.12 mph72%29.77 "HgN/A
2:50 AM50 °FPassing clouds.5 mph88%29.77 "HgN/A
1:50 AM50 °FPassing clouds.5 mph88%29.77 "HgN/A
12:50 AM52 °FPassing clouds.1 mph88%29.77 "HgN/A
11:50 PM
Sat, Mar 28
52 °FPassing clouds.5 mph82%29.80 "HgN/A
10:50 PM57 °FPassing clouds.7 mph67%29.80 "HgN/A
9:50 PM64 °FPassing clouds.5 mph46%29.77 "HgN/A
8:50 PM66 °FPassing clouds.15 mph40%29.74 "HgN/A
7:50 PM66 °FPassing clouds.20 mph43%29.74 "HgN/A
6:50 PM70 °FPassing clouds.13 mph35%29.71 "HgN/A
5:50 PM72 °FBroken clouds.9 mph31%29.65 "HgN/A
4:50 PM73 °FBroken clouds.8 mph29%29.62 "HgN/A
3:50 PM73 °FBroken clouds.12 mph31%29.62 "HgN/A
2:50 PM75 °FBroken clouds.18 mph31%29.59 "HgN/A
1:50 PM75 °FBroken clouds.7 mph31%29.59 "HgN/A
Weather by CustomWeather, © 2015

See weather overviewHow to use our weather pages